Location: Gilevgi
(36.8751°N, 30.0581°E)
Time: 10:00:34
(UTC+00:00)

CZ-2D R/B - Pass Details

Date: 14 March 2026
Orbit: 524 x 594 km, 98.0° (Epoch: 20 April)

Event Time Altitude Azimuth Distance (km) Brightness Sun altitude
Rises 17:22:46 0° 192° (SSW) 2,795 7.0 -16.1°
Reaches altitude 10° 17:25:09 10° 204° (SSW) 1,908 6.2 -16.6°
Maximum altitude 17:28:43 27° 263° (W) 1,138 5.7 -17.3°
Drops below altitude 10° 17:32:19 10° 323° (NW) 1,934 6.8 -18.0°
Sets 17:34:45 0° 335° (NNW) 2,842 7.5 -18.5°
